GW1769 Weather Reports


time (UTC)temp
F
wind
direction
speed
knots
gust
knots
rain 1hr
in
rain 24hr
in
rain mn
in
humidity
%
barometer
mb
20260506115030 52 79 0.0 0.0 0.07 0.03 0.03 99 1004.9
20260506114527 53 358 0.0 0.0 0.00 0.02 0.02 99 1004.9
20260506114025 53 78 0.0 0.0 0.05 0.02 0.02 99 1004.9
20260506113523 52 59 0.0 0.0 0.05 0.02 0.02 99 1004.5
20260506113020 52 35 0.0 0.0 0.00 0.01 0.01 99 1004.7
20260506112516 52 58 0.0 0.0 0.00 0.01 0.01 99 1004.7
20260506112014 52 58 0.0 0.0 0.00 0.01 0.01 99 1004.3
20260506111512 51 12 0.0 0.0 0.00 0.01 0.01 99 1004.5
20260506111009 51 50 0.0 0.0 0.07 0.01 0.01 98 1004.4
20260506110507 51 65 0.0 0.0 0.07 0.01 0.01 98 1004.2
20260506110003 51 247 2.6 2.6 0.00 0.00 0.00 99 1004.4
20260506105459 52 335 0.9 0.9 0.00 0.00 0.00 99 1004.6
20260506104957 52 62 0.0 0.0 0.00 0.00 0.00 99 1004.1
20260506104455 52 264 0.0 0.0 0.00 0.00 0.00 98 1004.4
20260506103953 51 46 0.0 0.0 0.00 0.00 0.00 98 1004.5
20260506103449 51 41 0.0 0.0 0.00 0.00 0.00 98 1004.5
20260506102946 51 86 0.0 0.0 0.00 0.00 0.00 97 1004.4
20260506102444 51 61 0.0 0.0 0.00 0.00 0.00 97 1004.2
20260506101941 51 62 0.0 0.0 0.00 0.00 0.00 96 1004.1
20260506101438 51 22 0.0 0.0 0.00 0.00 0.00 96 1004.3
20260506100935 51 56 0.0 0.0 0.00 0.00 0.00 96 1004.3
20260506100433 51 27 0.0 0.0 0.00 0.00 0.00 97 1004.3
20260506095931 51 37 0.0 0.0 0.00 0.00 0.00 97 1004.5
20260506095429 51 45 0.0 0.0 0.00 0.00 0.00 96 1004.3
20260506094925 51 28 0.0 0.0 0.00 0.00 0.00 96 1004.2
20260506094424 51 62 0.0 0.0 0.00 0.00 0.00 96 1004.0
20260506093921 51 66 0.0 0.0 0.00 0.00 0.00 96 1004.0
20260506093419 50 67 0.0 0.0 0.00 0.00 0.00 96 1004.0
20260506092916 50 67 0.0 0.0 0.00 0.00 0.00 96 1004.1
20260506092414 51 70 0.0 0.0 0.00 0.00 0.00 96 1004.1
20260506091911 51 85 0.0 0.0 0.00 0.00 0.00 96 1004.0
20260506091409 50 62 0.0 0.0 0.00 0.00 0.00 96 1004.2
20260506090905 50 62 0.0 0.0 0.00 0.00 0.00 96 1004.1
20260506090403 50 60 0.0 0.0 0.00 0.00 0.00 96 1004.1
20260506085900 50 57 0.0 0.0 0.00 0.00 0.00 96 1004.3
20260506085356 50 60 0.0 0.0 0.00 0.00 0.00 97 1004.4
20260506084853 50 46 0.0 0.9 0.00 0.00 0.00 97 1004.6
20260506084349 50 57 0.0 0.0 0.00 0.00 0.00 97 1004.5
20260506083846 50 60 0.0 0.0 0.00 0.00 0.00 96 1004.4
20260506083344 50 56 0.0 0.9 0.00 0.00 0.00 96 1004.5
20260506082841 50 62 0.0 0.0 0.00 0.00 0.00 97 1004.4
20260506082338 50 62 0.0 0.0 0.00 0.00 0.00 97 1004.6
20260506081833 50 62 0.0 0.0 0.00 0.00 0.00 97 1004.6
20260506081332 50 62 0.0 0.0 0.00 0.00 0.00 97 1004.7
20260506080829 50 60 0.0 0.0 0.00 0.00 0.00 97 1005.1
20260506080325 50 45 0.0 0.9 0.00 0.00 0.00 97 1004.8
20260506073310 51 62 0.0 0.0 0.00 0.00 0.00 96 1005.5
20260506072806 51 62 0.0 0.0 0.00 0.00 0.00 95 1005.5
20260506072305 51 62 0.0 0.0 0.00 0.00 0.00 95 1005.3
20260506071802 51 62 0.0 0.0 0.00 0.00 0.00 95 1005.2
20260506071300 51 62 0.0 0.0 0.00 0.00 0.00 95 1005.2
20260506070756 51 62 0.0 0.0 0.00 0.00 0.00 94 1005.2
20260506070253 51 62 0.0 0.0 0.00 0.00 0.00 94 1005.2
20260506062230 51 62 0.0 0.0 0.00 0.00 0.00 92 1005.5
20260506061726 51 63 0.0 0.0 0.00 0.00 0.00 92 1005.6
20260506061224 51 62 0.0 0.0 0.00 0.00 0.00 92 1005.7
20260506060722 51 62 0.0 0.0 0.00 0.00 0.00 92 1005.6
20260506060219 51 62 0.0 0.0 0.00 0.00 0.00 92 1005.7
20260506051151 53 56 0.0 0.9 0.00 0.00 0.00 90 1005.7
20260506050649 53 54 0.9 0.9 0.00 0.00 0.00 89 1005.7
20260506050146 53 52 0.0 0.9 0.00 0.00 0.00 87 1005.9
20260506044637 53 29 0.9 0.9 0.00 0.00 0.00 88 1006.0
20260506044134 53 53 0.0 0.0 0.00 0.00 0.00 88 1005.9
20260506043631 53 46 0.9 0.9 0.00 0.00 0.00 90 1006.1
20260506043129 53 54 0.0 0.9 0.00 0.00 0.00 89 1006.0
20260506042627 53 33 0.9 0.9 0.00 0.00 0.00 88 1006.2
20260506042125 54 53 0.0 0.0 0.00 0.00 0.00 88 1006.0
20260506041624 54 58 0.0 0.0 0.00 0.00 0.00 88 1005.7
20260506041120 54 5 0.9 1.7 0.00 0.00 0.00 88 1005.8
20260506040618 54 17 1.7 1.7 0.00 0.00 0.00 89 1006.1
20260506040114 54 56 0.9 0.9 0.00 0.06 0.06 89 1006.3
20260506035611 54 343 1.7 2.6 0.00 0.06 0.06 88 1006.2
20260506035108 54 339 1.7 1.7 0.00 0.06 0.06 89 1006.0
20260506034605 54 32 0.9 0.9 0.07 0.06 0.06 90 1005.8
20260506034102 54 4 0.9 0.9 0.12 0.06 0.06 90 1006.0
20260506033559 55 305 0.9 1.7 0.05 0.05 0.05 89 1006.2
20260506033056 56 54 0.9 0.9 0.00 0.04 0.04 83 1006.2
20260506032554 56 297 1.7 1.7 0.00 0.04 0.04 83 1006.2
20260506032050 56 357 1.7 1.7 0.00 0.04 0.04 83 1006.2
20260506031548 56 301 0.9 0.9 0.00 0.04 0.04 83 1006.2
20260506031044 57 340 0.9 0.9 0.00 0.04 0.04 82 1005.9
20260506030543 57 8 0.9 0.9 0.00 0.04 0.04 83 1006.0
20260506030039 57 42 1.7 1.7 0.00 0.04 0.04 83 1005.8
20260506025536 57 164 1.7 1.7 0.00 0.04 0.04 83 1005.9
20260506025032 57 310 3.5 4.3 0.00 0.04 0.04 83 1005.8
20260506024530 57 303 3.5 4.3 0.00 0.04 0.04 84 1005.9
20260506024026 57 313 1.7 2.6 0.00 0.04 0.04 85 1005.6
20260506023522 57 326 2.6 2.6 0.00 0.04 0.04 84 1005.7
20260506023020 58 321 4.3 5.2 0.00 0.04 0.04 85 1006.0
20260506022517 59 335 1.7 1.7 0.00 0.04 0.04 89 1005.8
20260506022014 59 359 1.7 1.7 0.00 0.04 0.04 90 1005.9
20260506021512 60 329 1.7 1.7 0.00 0.04 0.04 90 1006.0
20260506021009 60 312 3.5 4.3 0.00 0.04 0.04 89 1005.8
20260506020507 62 319 4.3 6.1 0.00 0.04 0.04 85 1005.6
20260506020004 61 5 2.6 4.3 0.00 0.04 0.04 85 1005.5
20260506015501 61 9 0.9 0.9 0.00 0.04 0.04 84 1005.6
20260506014958 61 47 0.0 0.9 0.00 0.04 0.04 84 1005.3
20260506014455 61 358 1.7 1.7 0.00 0.04 0.04 84 1005.3
20260506013951 62 70 0.0 0.0 0.00 0.04 0.04 84 1005.1
20260506013449 62 47 0.0 0.0 0.00 0.04 0.04 83 1005.2
20260506012945 61 319 1.7 1.7 0.00 0.04 0.04 83 1005.0
20260506012442 61 354 1.7 1.7 0.00 0.04 0.04 85 1004.7
20260506011939 61 10 0.9 0.9 0.00 0.04 0.04 87 1004.7
20260506011436 61 28 0.9 0.9 0.00 0.04 0.04 86 1004.7
20260506010933 60 22 0.9 0.9 0.00 0.04 0.04 86 1004.6
20260506010432 61 56 0.0 0.0 0.00 0.04 0.04 86 1004.5
20260506005927 61 48 0.9 0.9 0.00 0.04 0.04 85 1004.4
20260506005426 61 48 0.9 0.9 0.00 0.04 0.04 85 1004.2
20260506004920 61 51 0.0 0.9 0.00 0.04 0.04 84 1004.7
20260506004419 61 9 0.9 1.7 0.00 0.04 0.04 85 1004.3
20260506003914 61 46 0.0 0.0 0.00 0.04 0.04 86 1004.3
20260506003411 61 52 0.0 0.9 0.00 0.04 0.04 85 1004.3
20260506002908 61 34 0.9 0.9 0.00 0.04 0.04 86 1004.3
20260506002404 61 39 0.9 0.9 0.00 0.04 0.04 86 1004.3
20260506001859 61 13 0.9 0.9 0.00 0.04 0.04 86 1004.4
20260506001356 61 330 1.7 1.7 0.00 0.04 0.04 85 1004.4
20260506000853 62 23 0.9 0.9 0.00 0.04 0.04 84 1004.4
20260506000353 62 21 0.9 0.9 0.00 0.04 0.04 84 1003.9
20260505235848 62 348 1.7 1.7 0.00 0.04 0.04 83 1004.1
20260505235345 62 1 0.9 1.7 0.00 0.04 0.04 82 1003.9
20260505234842 62 47 0.9 0.9 0.00 0.04 0.04 83 1003.6
20260505234340 62 47 0.0 0.0 0.00 0.04 0.04 82 1003.7
20260505233836 62 1 0.9 1.7 0.00 0.04 0.04 82 1003.6
20260505233334 62 29 0.9 0.9 0.00 0.04 0.04 82 1003.9
20260505232832 62 356 0.9 1.7 0.00 0.04 0.04 82 1003.6
20260505232330 62 5 0.9 1.7 0.00 0.04 0.04 81 1003.4
20260505231825 62 39 0.9 0.9 0.00 0.04 0.04 81 1003.6
20260505231324 62 309 1.7 1.7 0.00 0.04 0.04 82 1003.5
20260505230822 62 332 1.7 1.7 0.00 0.04 0.04 82 1003.7
20260505230318 62 331 1.7 1.7 0.00 0.04 0.04 82 1003.3
20260505225815 62 355 1.7 1.7 0.00 0.04 0.04 82 1003.3
20260505225312 62 328 1.7 1.7 0.00 0.04 0.04 83 1003.4
20260505224807 62 17 1.7 1.7 0.00 0.04 0.04 85 1003.2
20260505224306 62 57 0.9 0.9 0.00 0.04 0.04 87 1003.3
20260505223802 61 9 0.9 1.7 0.00 0.04 0.04 90 1003.1
20260505223259 61 33 0.9 0.9 0.00 0.04 0.04 90 1003.1
20260505222755 61 334 2.6 2.6 0.00 0.04 0.04 90 1003.3
20260505222251 61 359 0.9 0.9 0.00 0.04 0.04 90 1003.7
20260505221748 61 25 0.9 0.9 0.00 0.04 0.04 89 1003.6
20260505221245 62 63 1.7 1.7 0.00 0.04 0.04 88 1003.7
20260505220742 62 78 1.7 1.7 0.00 0.04 0.04 87 1004.0
20260505220239 62 41 0.9 0.9 0.00 0.04 0.04 86 1003.7
20260505215738 62 352 1.7 1.7 0.00 0.04 0.04 85 1003.7
20260505215235 62 293 2.6 2.6 0.07 0.04 0.04 86 1003.8
20260505214733 62 298 3.5 4.3 0.07 0.04 0.04 87 1003.8
20260505214230 62 331 4.3 4.3 0.00 0.03 0.03 87 1003.8
20260505213727 61 290 2.6 4.3 0.00 0.03 0.03 88 1003.8
20260505213224 61 306 2.6 4.3 0.00 0.03 0.03 90 1003.8
20260505212720 61 333 2.6 2.6 0.00 0.03 0.03 89 1003.7
20260505212218 62 318 3.5 4.3 0.00 0.03 0.03 85 1004.1
20260505211714 62 353 2.6 4.3 0.00 0.03 0.03 83 1003.9
20260505211212 62 295 4.3 5.2 0.00 0.03 0.03 83 1003.4
20260505210708 62 300 4.3 5.2 0.00 0.03 0.03 81 1002.9
20260505210205 63 339 2.6 4.3 0.00 0.03 0.03 79 1002.2
20260505205703 64 317 6.1 7.0 0.00 0.03 0.03 76 1002.3
20260505205201 66 356 4.3 6.1 0.00 0.03 0.03 71 1001.8
20260505204657 70 356 7.0 8.7 0.00 0.03 0.03 63 1002.0
20260505204155 75 344 2.6 2.6 0.00 0.03 0.03 46 1001.8
20260505203652 75 332 2.6 2.6 0.00 0.03 0.03 45 1001.4
20260505203148 76 321 2.6 2.6 0.00 0.03 0.03 44 1001.1
20260505202644 76 355 3.5 4.3 0.00 0.03 0.03 44 1001.0
20260505202140 78 320 2.6 2.6 0.00 0.03 0.03 44 1001.0
20260505201637 77 337 2.6 2.6 0.00 0.03 0.03 45 1001.0
20260505201135 76 249 0.0 0.9 0.00 0.03 0.03 46 1000.9
20260505200633 75 318 1.7 2.6 0.00 0.03 0.03 46 1000.8
20260505200129 75 45 1.7 1.7 0.00 0.03 0.03 46 1000.8
20260505195625 74 99 0.0 0.9 0.00 0.03 0.03 47 1000.9
20260505195123 74 351 2.6 4.3 0.00 0.03 0.03 46 1001.2
20260505194620 74 54 2.6 2.6 0.00 0.03 0.03 46 1001.0
20260505194116 74 357 2.6 2.6 0.00 0.03 0.03 45 1000.9
20260505193613 74 309 2.6 2.6 0.00 0.03 0.03 44 1001.2
20260505193110 76 25 1.7 2.6 0.00 0.03 0.03 42 1001.3
20260505192609 77 353 4.3 8.7 0.00 0.03 0.03 39 1001.1
20260505192106 77 143 2.6 4.3 0.00 0.03 0.03 39 1001.2
20260505191604 78 212 6.1 9.6 0.00 0.03 0.03 37 1001.3
20260505191101 79 241 5.2 6.1 0.00 0.03 0.03 36 1001.1
20260505190556 79 219 4.3 5.2 0.00 0.03 0.03 37 1000.8
20260505190052 78 309 2.6 4.3 0.00 0.03 0.03 39 1001.2
20260505185549 79 291 4.3 5.2 0.00 0.03 0.03 37 1001.0
20260505185045 81 228 7.8 12.2 0.00 0.03 0.03 35 1000.9
20260505184542 81 205 3.5 4.3 0.00 0.03 0.03 38 1001.2
20260505184039 81 259 4.3 6.1 0.00 0.03 0.03 36 1000.9
20260505183536 81 256 7.0 11.3 0.00 0.03 0.03 35 1001.1
20260505183033 80 236 0.9 1.7 0.00 0.03 0.03 36 1001.2
20260505182529 78 205 3.5 4.3 0.00 0.03 0.03 37 1001.3
20260505182026 79 186 5.2 7.0 0.00 0.03 0.03 37 1001.1
20260505181523 79 351 4.3 6.1 0.00 0.03 0.03 37 1001.3
20260505181021 80 282 2.6 4.3 0.00 0.03 0.03 36 1001.4
20260505180516 79 238 2.6 2.6 0.00 0.03 0.03 41 1001.5
20260505180015 80 77 2.6 2.6 0.00 0.03 0.03 39 1001.5
20260505175509 80 234 4.3 7.0 0.00 0.03 0.03 38 1001.5
20260505175006 80 175 6.1 9.6 0.00 0.03 0.03 37 1001.5
20260505174503 80 246 2.6 4.3 0.00 0.03 0.03 38 1001.5
20260505173959 81 239 3.5 5.2 0.00 0.03 0.03 41 1001.5
20260505173455 81 214 4.3 6.1 0.00 0.03 0.03 36 1001.3
20260505172952 81 262 3.5 5.2 0.00 0.03 0.03 37 1001.6
20260505172451 81 205 5.2 7.8 0.00 0.03 0.03 37 1001.7
20260505171950 81 264 2.6 4.3 0.00 0.03 0.03 36 1001.7
20260505171447 81 61 3.5 4.3 0.00 0.03 0.03 38 1001.9
20260505170944 79 264 5.2 7.0 0.00 0.03 0.03 39 1001.5
20260505170441 80 354 4.3 6.1 0.00 0.03 0.03 38 1001.9
20260505165936 82 166 3.5 7.0 0.00 0.03 0.03 36 1001.9
20260505165432 80 340 2.6 2.6 0.00 0.03 0.03 39 1001.9
20260505164928 81 218 4.3 7.0 0.00 0.03 0.03 39 1002.0
20260505164425 81 223 5.2 6.1 0.00 0.03 0.03 38 1001.9
20260505163922 81 204 7.0 9.6 0.00 0.03 0.03 39 1002.1
20260505163421 81 72 4.3 8.7 0.00 0.03 0.03 39 1002.3
20260505162920 81 148 3.5 5.2 0.00 0.03 0.03 38 1002.3
20260505162415 81 321 6.1 9.6 0.00 0.03 0.03 38 1002.2
20260505161912 81 238 0.9 1.7 0.00 0.03 0.03 39 1002.3
20260505161409 79 40 1.7 1.7 0.00 0.03 0.03 41 1002.2
20260505160907 78 204 5.2 7.0 0.00 0.03 0.03 42 1002.5
20260505160405 80 212 0.9 0.9 0.00 0.03 0.03 42 1002.5
20260505153343 78 175 3.5 5.2 0.00 0.03 0.03 43 1003.3
20260505152841 77 225 1.7 2.6 0.00 0.03 0.03 46 1003.2
20260505152338 78 284 3.5 6.1 0.00 0.03 0.03 45 1003.4
20260505151837 78 187 3.5 4.3 0.00 0.03 0.03 44 1002.9
20260505151334 77 55 3.5 6.1 0.00 0.03 0.03 45 1003.2
20260505150831 77 246 4.3 7.0 0.00 0.03 0.03 47 1003.1
20260505150323 78 77 3.5 5.2 0.00 0.03 0.03 48 1003.1
20260505140247 68 237 1.7 2.6 0.00 0.03 0.03 58 1003.5
20260505130211 67 77 0.9 0.9 0.00 0.03 0.03 61 1004.3
20260505124701 68 55 0.0 0.9 0.00 0.03 0.03 61 1004.3
20260505124157 67 220 0.9 1.7 0.00 0.03 0.03 62 1004.0
20260505123653 68 47 2.6 2.6 0.00 0.03 0.03 61 1004.3
20260505123150 68 92 1.7 2.6 0.00 0.03 0.03 62 1004.2
20260505122647 67 175 0.9 0.9 0.00 0.03 0.03 62 1004.2
20260505122144 67 219 4.3 6.1 0.00 0.03 0.03 63 1004.4
20260505121641 66 84 1.7 1.7 0.00 0.03 0.03 65 1004.4
20260505121137 66 104 0.9 1.7 0.00 0.03 0.03 65 1004.4
20260505120633 65 40 0.9 1.7 0.00 0.03 0.03 67 1004.4
20260505120129 64 207 0.9 2.6 0.00 0.03 0.03 72 1004.5
20260505115624 63 41 2.6 4.3 0.00 0.03 0.03 69 1004.3